Regional Weather Roundup
Issued by NWS Wakefield, VA

Home | Current Version | Previous Version | Graphics & Text | Print | Product List | Glossary On
Versions: 1 2 3 4 5 6 7 8 9 10 11 12 13 14 15 16 17 18 19 20 21 22 23 24 25 26 27 28 29 30 31 32 33 34
000
ASUS41 KAKQ 301615
RWRAKQ

REGIONAL WEATHER ROUNDUP
NATIONAL WEATHER SERVICE WAKEFIELD VA
1200 PM EDT THU JUL 30 2015

Note: "fair" indicates few or no clouds below 12,000 feet with no
significant weather and/or obstructions to visibility. * = Denotes
station may not report precipitation (e.g., rain,snow,etc.),
thunder or fog.

VAZ042-051-052>054-056-301700-
NORTHERN VIRGINIA

CITY           SKY/WX    TMP DP  RH WIND       PRES   REMARKS
WASH NATIONAL  PTSUNNY   89  76  65 S7        29.91F HX 100
DULLES         PTSUNNY   86  76  71 SW7       29.92F HX  96
FORT BELVOIR   MOSUNNY   87  75  68 SE8       29.91F HX  96
QUANTICO       NOT AVBL
FREDERICKSBRG* MOSUNNY   90  76  62 S7        29.92S HX 101
STAFFORD*      SUNNY     88  73  60 SW6       29.97S HX  95
WARRENTON      SUNNY     89  78  71 CALM      29.93S HX 103
CULPEPER*      MOSUNNY   86  76  72 CALM      29.93F HX  97
MANASSAS*      SUNNY     88  75  66 SW3       29.92S HX  97
LEESBURG*      PTSUNNY   90  79  70 SW8G17    29.93S HX 105
WINCHESTER     CLOUDY    84  72  65 NW13G18   29.96R
FRONT ROYAL*   CLOUDY    81  75  83 CALM      29.95R
LURAY*         PTSUNNY   86  75  70 SW7       29.97S HX  95
$$

VAZ048-049-060>072-079>083-301700-
CENTRAL AND SOUTH CENTRAL VIRGINIA

CITY           SKY/WX    TMP DP  RH WIND       PRES   REMARKS
RICHMOND       CLOUDY    86  73  65 S8        29.95S
CHESTERFIELD*  FAIR      86  66  51 S9        29.96S
PETERSBURG*    PTSUNNY   87  79  76 S6        29.97R HX 101
HANOVER          N/A    N/A N/A N/A S7        29.96S
TAPPAHANNOCK*  PTSUNNY   86  72  62 CALM      29.96S
QUINTON*       FAIR      84  74  70 S3        29.95S
CHARLOTTSVILLE PTSUNNY   86  75  69 CALM      29.95R HX  95
GORDONSVILLE*  FAIR      86  75  70 SW5       29.94S HX  95
ORANGE*        MOSUNNY   88  77  70 S8        29.95S HX 100
LOUISA*        MOSUNNY   88  75  66 SW3       29.94R HX  97
BUMPASS*       FAIR      87  76  69 SW6       29.94S HX  97
FARMVILLE*     MOSUNNY   87  74  65 S7        29.94S HX  96
CREWE*         FAIR     N/A N/A N/A MISG      29.96R
FORT PICKETT*  FAIR      86  75  68 S7        29.97S HX  95
CHASE CITY*    FAIR      89  79  72 SW6       29.97S HX 104
CLARKSVILLE*   FAIR      88  75  66 S3        29.97S HX  97
SOUTH HILL*    SUNNY     86  75  69 S6        30.03S
LAWRENCEVILLE* FAIR      88  75  66 S3        29.97S HX  97
EMPORIA*       SUNNY     88  72  58 S5        29.97F
$$

VAZ088>098-301700-
SOUTHEAST VIRGINIA

CITY           SKY/WX    TMP DP  RH WIND       PRES   REMARKS
NORFOLK        MOSUNNY   86  73  65 NE8       29.95F
VIRGINIA BEACH MOSUNNY   89  74  60 SE9       29.95S HX  98
NORFOLK NAVAL  MOSUNNY   85  72  65 VRB6      29.97S
WEST POINT*    SUNNY     89  71  53 S6        29.96F HX  95
SALUDA*        FAIR      85  74  69 SW6       29.95S
NEWPORT NEWS   SUNNY     89  71  55 VRB3      29.96R HX  95
LANGLEY AFB    SUNNY     88  71  55 S5        29.95S
FORT EUSTIS    SUNNY     87  71  59 VRB3      29.94S
WILLIAMSBURG*  SUNNY     91  75  59 W3        29.96F HX 102
HR EXEC AP*    FAIR      88  73  62 S6        29.98R HX  96
FRANKLIN*      SUNNY     88  71  56 SE5       29.96S
WAKEFIELD      SUNNY     89  74  60 SW7       29.96S HAZE    HX  98
$$

VAZ020-022-025-037-045-301700-
WEST CENTRAL AND SOUTHWEST VIRGINIA

CITY           SKY/WX    TMP DP  RH WIND       PRES   REMARKS
STAUNTON*      PTSUNNY   87  73  62 SW6       30.00F
WAYNESBORO*    CLOUDY    80  73  79 W5        30.01S
HOT SPRINGS VA FOG       70  70 100 W7        30.13F VSB<1/4
LYNCHBURG      PTSUNNY   82  73  74 SW6       30.00R
DANVILLE       SUNNY     88  76  67 W6        29.97S HX  99
SOUTH BOSTON*  FAIR      87  75  66 SW6       29.96S HX  97
MARTINSVILLE   MOSUNNY   87  72  61 N3        30.02F
ROANOKE        PTSUNNY   81  73  76 W10       30.03S
BLACKSBURG     PTSUNNY   79  74  83 W6        30.10F
DUBLIN*          N/A     83  73  71 W3        30.09F
MARION*        MOSUNNY   80  73  76 NW9       30.14S
HILLSVILLE*    CLOUDY    79  71  76 NW8       30.10S
RICHLANDS*     CLOUDY    73  72  96 NW5       30.14R
WISE*          CLOUDY    75  73  94 NW3       30.16S
ABINGDON*      PTSUNNY   82  70  68 NW6       30.10S
$$

MDZ021>025-VAZ099-100-301700-
SOUTHERN MARYLAND AND THE DELMARVA PENINSULA

CITY           SKY/WX    TMP DP  RH WIND       PRES   REMARKS
PATUXENT RIVER CLOUDY    85  73  67 SW10      29.93S
BAY BRIDGE APT   N/A     86  72  62 S12       29.92S
LEONARDTOWN    MOSUNNY   86  72  62 SW5       29.95F
DOVER          MOSUNNY   87  75  66 S16       29.90F HX  97
GEORGETOWN     MOSUNNY   86  75  69 S14       29.94F HX  95
EASTON         MOSUNNY   90  73  58 SW14      29.96S HX  98
CAMBRIDGE      MOSUNNY   84  70  61 SW7       29.93S
SALISBURY      SUNNY     86  74  67 SW10      29.94F
OCEAN CITY     SUNNY     85  74  69 S12G17    29.95F
WALLOPS ISLAND SUNNY     84  76  76 S13       29.96F
ACCOMACK*      MOSUNNY   86  77  74 S7        29.95F HX  97
$$

NCZ012>017-030>032-301700-
NORTH CENTRAL AND EASTERN NORTH CAROLINA

CITY           SKY/WX    TMP DP  RH WIND       PRES   REMARKS
ROANOKE RAPIDS FAIR      88  72  58 S5        29.97R
RALEIGH        MOSUNNY   88  72  58 W3        29.98S
ELIZABETH CITY PTSUNNY   88  76  67 E6        29.96S HX  99
AHOSKIE*       SUNNY     87  72  59 N3        29.96F
EDENTON*         N/A     87  73  63 CALM      29.96S
CURRITUCK*     PTSUNNY   88  73  62 E7        29.97S HX  95
KILL DEVIL HLS LGT RAIN  85  76  74 S3        29.96S
MANTEO         MOSUNNY   85  76  75 S13G20    29.97S
CAPE HATTERAS  CLOUDY    82  76  81 S13G24    29.99R
TARBORO*         N/A     89  70  51 E3        29.98S
GOLDSBORO      SUNNY     89  72  58 VRB2      29.95F HX  95
WASHINGTON     SUNNY     87  75  67 N3        29.96F HX  96
GREENVILLE     SUNNY     90  72  55 W5        29.98F HX  96
NEW BERN       CLOUDY    88  76  67 CALM      29.96S HX  99
WILMINGTON     PTSUNNY   89  74  60 N7        29.95F HX  98
$$

VAZ048-301700-
ELSEWHERE

CITY           SKY/WX    TMP DP  RH WIND       PRES   REMARKS
HARRISBURG PA  LGT RAIN  79  75  87 W10       29.90R FOG
BALTIMORE      PTSUNNY   88  74  63 SW6       29.90F HX  96
ANNAPOLIS      PTSUNNY   85  75  72 S12       29.91S
ANDREWS AFB    MOSUNNY   89  74  62 SW8       29.92S HX  97
PHILADELPHIA   CLOUDY    87  73  62 SW13G22   29.90S
HENDERSON NC   SUNNY     87  69  55 SW7       29.98S
GREENSBORO     PTSUNNY   88  72  58 CALM      29.99S
ROCKY MOUNT    SUNNY     91  70  49 CALM      29.97S HX  96
$$

VAZ100-301700-
MARINE

STATION/POSITION TIME  TEMP    WIND        PRES    WAVE   SWELL
                       AIR SEA DIR/SP/G            HT/PER HT/PER
                 (UTC) (F)     (DEG/KT/KT) (MB)    (FT/S) (FT/S)
BRANDYWINE LGT   1500   77 75  180/ 11/ 11 1013.9
CAPE MAY NJ      1500   79 78  160/ 12/ 15 1013.5
LEWES DE         1500   84 72  220/  7/ 11 1013.7
15NM E FENWICK I 1550   79 79  200/ 14/ 16 1014.4F   3/10   2/10
OCEAN-CITY-INLET 1500   78 74  200/  9/ 12 1013.7
WACHAPREAGUE VA  1500   83 83  200/  8/ 11 1014.7
GOOSES REEF MD   1600   84 82  200/ 10/ 14 1014.4F
COVE POINT MD    1500   81     220/ 11/ 15 1014.2R
SOLOMONS ISLAND  1500      82                N/A
BISHOPS HEAD MD  1500   81 83  190/ 12/ 14 1013.2
POTOMAC MD       1600   84 83  210/  8/ 10 1012.8F   1/ 2
CAMBRIDGE MD     1500   84 83  210/  8/ 12 1012.9
LEWISETTA VA     1500   83 83  220/  9/ 10 1013.5R
RAPPAHANNOCK LGT 1500          190/ 11/ 12 1015.1S
STINGRAY PT      1600   82 83  160/ 10/ 12 1014.4F   1/ 2
YORK RVR RNG VA  1500   83     190/  3/  4 1013.9
YORKTOWN VA      1500   84 83  190/  4/  5 1014.1
JAMESTOWN VA     1600   84 87  120/  2/  4   N/A
DOMINION TERM VA 1500   81     180/  3/  3 1014.3F
KIPTOPEKE VA     1500      81  190/  5/  6   N/A
CHES BAY BRIDGE  1500   81 76   30/  5/  5 1014.2
CAPE HENRY VA    1500   81     130/ 12/ 14   N/A
CHESAPEAKE LGHT  1500   80     160/  9/  9 1015.4R
WILLOUBY STN VA  1500   82     270/  4/  5 1015.4F
CAPE HENRY BUOY  1528      81                N/A     3/ 6
1ST LANDING BUOY 1600      81              1014.3S   1/ 5
CAPE CHARLES BUO 1526      82                N/A     2/10   2/10
OFFSHORE WE BUOY 1511      82                N/A     3/ 9   3/ 9
64NM E OF VA BCH 1550   81 82  180/ 12/ 14 1014.7R   3/11   2/11
DUCK PIER NC     1500   81 63  120/  8/  9 1014.0
44100 DUCK FRF   1524      81                N/A     2/11   2/11
44056 DUCK FRF   1511      72                N/A     2/10
OREGON INLET NC  1500   83 81  170/ 14/ 17 1014.9
HATTERAS NC      1500   82 83  210/  7/  8 1014.9
DIAMOND SHLS NC  1550   84 85  190/ 17/ 21 1015.1R   4/ 5   2/ 8
CAPE LOOKOUT NC  1600   82     180/ 12/ 14 1014.4S
$$



USA.gov is the U.S. government's official web portal to all federal, state and local government web resources and services.